Time,TemperatureF,DewpointF,PressureIn,WindDirection,WindDirectionDegrees,WindSpeedMPH,WindSpeedGustMPH,Humidity,HourlyPrecipIn,Conditions,Clouds,dailyrainin,SoftwareType,DateUTC
2013-04-10 00:00:00,71.2,71.2,29.88,SSE,149,7.6,7.6,100,0.00,,SKC,0.00,VWS V13.01,2013-04-10 05:00:00,
2013-04-10 00:05:00,71.2,71.2,29.88,SSW,193,6.3,6.3,100,0.00,,SKC,0.00,VWS V13.01,2013-04-10 05:05:00,
2013-04-10 00:10:00,71.2,71.2,29.88,ESE,117,7.6,7.6,100,0.00,,SKC,0.00,VWS V13.01,2013-04-10 05:10:00,
2013-04-10 00:15:00,71.1,71.1,29.88,ESE,108,4.0,5.8,100,0.00,,SKC,0.00,VWS V13.01,2013-04-10 05:15:00,
2013-04-10 00:20:00,71.1,71.1,29.88,SE,144,3.6,4.0,100,0.00,,SKC,0.00,VWS V13.01,2013-04-10 05:20:00,
2013-04-10 00:25:00,71.1,71.1,29.88,ESE,118,5.4,6.3,100,0.00,,SKC,0.00,VWS V13.01,2013-04-10 05:25:00,
2013-04-10 00:30:00,71.1,71.1,29.85,SSE,163,5.8,5.8,100,0.00,,SKC,0.00,VWS V13.01,2013-04-10 05:30:00,
2013-04-10 00:35:00,70.9,70.9,29.85,SSE,155,8.1,8.1,100,0.00,,SKC,0.00,VWS V13.01,2013-04-10 05:35:00,
2013-04-10 00:40:00,70.9,70.9,29.85,ENE,60,2.2,3.1,100,0.00,,SKC,0.00,VWS V13.01,2013-04-10 05:40:00,
2013-04-10 00:45:00,70.9,70.9,29.85,ESE,119,2.7,4.0,100,0.00,,SKC,0.00,VWS V13.01,2013-04-10 05:45:00,
2013-04-10 00:50:00,70.9,70.9,29.85,SE,128,4.0,6.3,100,0.00,,SKC,0.00,VWS V13.01,2013-04-10 05:50:00,
2013-04-10 00:55:00,70.9,70.9,29.85,SSE,164,5.8,7.6,100,0.00,,SKC,0.00,VWS V13.01,2013-04-10 05:55:00,
2013-04-10 01:00:00,70.7,70.7,29.85,SSW,195,5.8,5.8,100,0.00,,SKC,0.00,VWS V13.01,2013-04-10 06:00:00,
2013-04-10 01:05:00,70.7,70.7,29.85,South,174,4.9,5.8,100,0.00,,SKC,0.00,VWS V13.01,2013-04-10 06:05:00,
2013-04-10 01:10:00,70.7,70.7,29.85,ESE,123,4.0,5.8,100,0.00,,SKC,0.00,VWS V13.01,2013-04-10 06:10:00,
2013-04-10 01:15:00,70.7,70.7,29.83,SE,131,5.4,5.4,100,0.00,,SKC,0.00,VWS V13.01,2013-04-10 06:15:00,
2013-04-10 01:20:00,70.7,70.7,29.83,SE,144,7.2,7.2,100,0.00,,SKC,0.00,VWS V13.01,2013-04-10 06:20:00,
2013-04-10 01:25:00,70.7,70.7,29.83,South,179,4.9,4.9,100,0.00,,SKC,0.00,VWS V13.01,2013-04-10 06:25:00,
2013-04-10 01:30:00,70.5,70.5,29.85,SW,216,2.7,6.3,100,0.00,,SKC,0.00,VWS V13.01,2013-04-10 06:30:00,
2013-04-10 01:35:00,70.5,70.5,29.85,SE,137,4.9,5.4,100,0.00,,SKC,0.00,VWS V13.01,2013-04-10 06:35:00,
2013-04-10 01:40:00,70.5,70.5,29.85,SSE,157,3.1,6.3,100,0.00,,SKC,0.00,VWS V13.01,2013-04-10 06:40:00,
2013-04-10 01:45:00,70.5,70.5,29.83,SSE,152,4.9,5.8,100,0.00,,SKC,0.00,VWS V13.01,2013-04-10 06:45:00,
2013-04-10 01:50:00,70.5,70.5,29.83,South,177,3.1,5.8,100,0.00,,SKC,0.00,VWS V13.01,2013-04-10 06:50:00,
2013-04-10 01:55:00,70.3,70.3,29.83,South,191,2.7,5.8,100,0.00,,SKC,0.00,VWS V13.01,2013-04-10 06:55:00,
2013-04-10 02:00:00,70.3,70.3,29.83,South,177,3.1,5.8,100,0.00,,SKC,0.00,VWS V13.01,2013-04-10 07:00:00,
2013-04-10 02:05:00,70.3,70.3,29.83,SE,143,4.9,5.8,100,0.00,,SKC,0.00,VWS V13.01,2013-04-10 07:05:00,
2013-04-10 02:10:00,70.3,70.3,29.83,ESE,116,3.6,6.3,100,0.00,,SKC,0.00,VWS V13.01,2013-04-10 07:10:00,
2013-04-10 02:15:00,70.3,70.3,29.83,South,184,5.8,10.1,100,0.00,,SKC,0.00,VWS V13.01,2013-04-10 07:15:00,
2013-04-10 02:20:00,70.3,70.3,29.83,SSE,167,5.8,5.8,100,0.00,,SKC,0.00,VWS V13.01,2013-04-10 07:20:00,
2013-04-10 02:25:00,70.3,70.3,29.83,SSE,160,4.0,5.4,100,0.00,,SKC,0.00,VWS V13.01,2013-04-10 07:25:00,
2013-04-10 02:30:00,70.3,70.3,29.83,SSE,155,4.9,6.3,100,0.00,,SKC,0.00,VWS V13.01,2013-04-10 07:30:00,
2013-04-10 02:35:00,70.3,70.3,29.83,SE,138,7.6,8.7,100,0.00,,SKC,0.00,VWS V13.01,2013-04-10 07:35:00,
2013-04-10 02:40:00,70.3,69.8,29.83,SE,128,4.0,5.8,98,0.00,,SKC,0.00,VWS V13.01,2013-04-10 07:40:00,
2013-04-10 02:45:00,70.3,69.8,29.80,SSW,193,2.7,6.3,98,0.00,,SKC,0.00,VWS V13.01,2013-04-10 07:45:00,
2013-04-10 02:50:00,70.3,69.4,29.80,SE,140,5.8,10.1,97,0.00,,SKC,0.00,VWS V13.01,2013-04-10 07:50:00,
2013-04-10 02:55:00,70.3,69.2,29.80,South,177,11.0,11.0,96,0.00,,SKC,0.00,VWS V13.01,2013-04-10 07:55:00,
2013-04-10 03:00:00,70.5,69.6,29.80,SSW,193,5.4,8.1,97,0.00,,SKC,0.00,VWS V13.01,2013-04-10 08:00:00,
2013-04-10 03:05:00,70.3,69.2,29.80,South,185,3.1,5.8,96,0.00,,SKC,0.00,VWS V13.01,2013-04-10 08:05:00,
2013-04-10 03:10:00,70.5,69.6,29.80,SSE,167,10.1,10.5,97,0.00,,SKC,0.00,VWS V13.01,2013-04-10 08:10:00,
2013-04-10 03:15:00,70.5,69.9,29.83,South,189,6.3,6.3,98,0.00,,SKC,0.00,VWS V13.01,2013-04-10 08:15:00,
2013-04-10 03:20:00,70.3,69.4,29.83,South,174,6.3,7.6,97,0.00,,SKC,0.00,VWS V13.01,2013-04-10 08:20:00,
2013-04-10 03:25:00,70.3,69.4,29.83,South,169,5.4,5.4,97,0.00,,SKC,0.00,VWS V13.01,2013-04-10 08:25:00,
2013-04-10 03:30:00,70.3,69.8,29.80,South,173,6.7,7.2,98,0.00,,SKC,0.00,VWS V13.01,2013-04-10 08:30:00,
2013-04-10 03:35:00,70.3,70.1,29.80,South,182,8.7,8.7,99,0.00,,SKC,0.00,VWS V13.01,2013-04-10 08:35:00,
2013-04-10 03:40:00,70.3,70.3,29.80,SSE,168,8.1,8.1,100,0.00,,SKC,0.00,VWS V13.01,2013-04-10 08:40:00,
2013-04-10 03:45:00,70.3,70.3,29.80,East,97,5.4,5.8,100,0.00,,SKC,0.00,VWS V13.01,2013-04-10 08:45:00,
2013-04-10 03:50:00,70.3,70.3,29.80,South,174,11.0,11.0,100,0.00,,SKC,0.00,VWS V13.01,2013-04-10 08:50:00,
2013-04-10 03:55:00,70.3,70.3,29.80,South,188,4.0,5.4,100,0.00,,SKC,0.00,VWS V13.01,2013-04-10 08:55:00,
2013-04-10 04:00:00,70.3,70.3,29.80,South,186,4.9,5.4,100,0.00,,SKC,0.00,VWS V13.01,2013-04-10 09:00:00,
2013-04-10 04:05:00,70.3,70.3,29.80,South,170,2.7,5.8,100,0.00,,SKC,0.00,VWS V13.01,2013-04-10 09:05:00,
2013-04-10 04:10:00,70.3,70.3,29.80,South,188,5.8,6.7,100,0.00,,SKC,0.00,VWS V13.01,2013-04-10 09:10:00,
2013-04-10 04:14:00,70.3,70.3,29.80,SE,141,5.8,7.6,100,0.00,,SKC,0.00,VWS V13.01,2013-04-10 09:14:00,
2013-04-10 04:19:00,70.3,70.3,29.80,South,169,4.9,5.4,100,0.00,,SKC,0.00,VWS V13.01,2013-04-10 09:19:00,
2013-04-10 04:24:00,70.3,70.3,29.80,SE,142,5.4,6.3,100,0.00,,SKC,0.00,VWS V13.01,2013-04-10 09:24:00,
2013-04-10 04:29:00,70.3,70.3,29.80,SSW,203,5.8,5.8,100,0.00,,SKC,0.00,VWS V13.01,2013-04-10 09:29:00,
2013-04-10 04:34:00,70.3,70.3,29.80,SE,139,5.8,6.3,100,0.00,,SKC,0.00,VWS V13.01,2013-04-10 09:34:00,
2013-04-10 04:39:00,70.3,70.3,29.80,SSW,207,4.0,4.0,100,0.00,,SKC,0.00,VWS V13.01,2013-04-10 09:39:00,
2013-04-10 04:44:00,70.3,70.3,29.80,SSW,194,4.0,5.4,100,0.00,,SKC,0.00,VWS V13.01,2013-04-10 09:44:00,
2013-04-10 04:49:00,70.3,70.3,29.80,SE,134,3.1,4.0,100,0.00,,SKC,0.00,VWS V13.01,2013-04-10 09:49:00,
2013-04-10 04:54:00,70.2,70.2,29.80,SE,139,3.1,6.3,100,0.00,,SKC,0.00,VWS V13.01,2013-04-10 09:54:00,
2013-04-10 04:59:00,70.3,70.3,29.80,SSE,156,4.0,4.9,100,0.00,,SKC,0.00,VWS V13.01,2013-04-10 09:59:00,
2013-04-10 05:04:00,70.2,70.2,29.80,SE,142,5.8,5.8,100,0.00,,SKC,0.00,VWS V13.01,2013-04-10 10:04:00,
2013-04-10 05:09:00,70.2,70.2,29.80,ESE,110,4.0,4.9,100,0.00,,SKC,0.00,VWS V13.01,2013-04-10 10:09:00,
2013-04-10 05:14:00,70.2,70.2,29.80,SE,142,4.9,5.4,100,0.00,,SKC,0.00,VWS V13.01,2013-04-10 10:14:00,
2013-04-10 05:19:00,70.2,70.2,29.80,SSE,152,5.8,5.8,100,0.00,,SKC,0.00,VWS V13.01,2013-04-10 10:19:00,
2013-04-10 05:24:00,70.2,70.2,29.80,SSE,151,3.1,4.9,100,0.00,,SKC,0.00,VWS V13.01,2013-04-10 10:24:00,
2013-04-10 05:29:00,70.2,70.2,29.80,SSE,152,2.7,5.4,100,0.00,,SKC,0.00,VWS V13.01,2013-04-10 10:29:00,
2013-04-10 05:34:00,70.2,70.2,29.80,South,177,3.6,3.6,100,0.00,,SKC,0.00,VWS V13.01,2013-04-10 10:34:00,
2013-04-10 05:39:00,70.0,70.0,29.80,SE,135,0.0,0.0,100,0.00,,SKC,0.00,VWS V13.01,2013-04-10 10:39:00,
2013-04-10 05:44:00,70.0,70.0,29.80,SSE,161,3.6,3.6,100,0.00,,SKC,0.00,VWS V13.01,2013-04-10 10:44:00,
2013-04-10 05:49:00,70.0,70.0,29.80,South,173,0.0,0.0,100,0.00,,SKC,0.00,VWS V13.01,2013-04-10 10:49:00,
2013-04-10 05:54:00,70.0,70.0,29.80,ESE,112,3.1,3.1,100,0.00,,SKC,0.00,VWS V13.01,2013-04-10 10:54:00,
2013-04-10 05:59:00,70.0,70.0,29.80,SSE,156,2.7,3.6,100,0.00,,SKC,0.00,VWS V13.01,2013-04-10 10:59:00,
2013-04-10 06:04:00,70.0,70.0,29.80,South,170,3.1,3.1,100,0.00,,SKC,0.00,VWS V13.01,2013-04-10 11:04:00,
2013-04-10 06:09:00,70.0,70.0,29.80,SSW,193,2.7,5.8,100,0.00,,SKC,0.00,VWS V13.01,2013-04-10 11:09:00,
2013-04-10 06:14:00,70.0,70.0,29.80,South,178,0.0,0.0,100,0.00,,SKC,0.00,VWS V13.01,2013-04-10 11:14:00,
2013-04-10 06:19:00,70.0,70.0,29.80,SSE,161,0.0,3.6,100,0.00,,SKC,0.00,VWS V13.01,2013-04-10 11:19:00,
2013-04-10 06:24:00,70.0,70.0,29.80,SSE,166,0.0,0.0,100,0.00,,SKC,0.00,VWS V13.01,2013-04-10 11:24:00,
2013-04-10 06:29:00,70.0,70.0,29.80,ESE,120,0.0,4.5,100,0.00,,SKC,0.00,VWS V13.01,2013-04-10 11:29:00,
2013-04-10 06:34:00,70.2,70.2,29.80,SE,141,2.7,3.6,100,0.00,,SKC,0.00,VWS V13.01,2013-04-10 11:34:00,
2013-04-10 06:39:00,70.2,70.2,29.80,SSE,165,0.0,0.0,100,0.00,,SKC,0.00,VWS V13.01,2013-04-10 11:39:00,
2013-04-10 06:44:00,70.2,70.2,29.80,SSE,153,0.0,0.0,100,0.00,,SKC,0.00,VWS V13.01,2013-04-10 11:44:00,
2013-04-10 06:49:00,70.3,70.3,29.80,ESE,109,0.0,0.0,100,0.00,,SKC,0.00,VWS V13.01,2013-04-10 11:49:00,
2013-04-10 06:54:00,70.3,70.3,29.80,SE,136,5.8,5.8,100,0.00,,SKC,0.00,VWS V13.01,2013-04-10 11:54:00,
2013-04-10 06:59:00,70.3,70.3,29.80,SSE,167,0.0,0.0,100,0.00,,SKC,0.00,VWS V13.01,2013-04-10 11:59:00,
2013-04-10 07:04:00,70.3,70.3,29.80,SE,141,5.4,8.1,100,0.00,,SKC,0.00,VWS V13.01,2013-04-10 12:04:00,
2013-04-10 07:09:00,70.5,70.5,29.80,ESE,116,2.2,4.0,100,0.00,,SKC,0.00,VWS V13.01,2013-04-10 12:09:00,
2013-04-10 07:14:00,70.5,70.5,29.80,SE,132,4.9,7.6,100,0.00,,SKC,0.00,VWS V13.01,2013-04-10 12:14:00,
2013-04-10 07:19:00,70.7,70.7,29.80,ESE,110,0.0,4.0,100,0.00,,SKC,0.00,VWS V13.01,2013-04-10 12:19:00,
2013-04-10 07:24:00,70.9,70.9,29.80,ESE,113,0.0,7.6,100,0.00,,SKC,0.00,VWS V13.01,2013-04-10 12:24:00,
2013-04-10 07:29:00,71.1,71.1,29.80,ESE,113,0.0,0.0,100,0.00,,SKC,0.00,VWS V13.01,2013-04-10 12:29:00,
2013-04-10 07:34:00,71.2,71.2,29.80,ESE,112,0.0,2.2,100,0.00,,SKC,0.00,VWS V13.01,2013-04-10 12:34:00,
2013-04-10 07:39:00,71.2,71.2,29.80,SSE,148,2.7,5.4,100,0.00,,SKC,0.00,VWS V13.01,2013-04-10 12:39:00,
2013-04-10 07:44:00,71.4,71.4,29.83,ESE,114,0.0,5.4,100,0.00,,SKC,0.00,VWS V13.01,2013-04-10 12:44:00,
2013-04-10 07:49:00,71.6,70.4,29.83,ESE,111,2.2,2.7,96,0.00,,SKC,0.00,VWS V13.01,2013-04-10 12:49:00,
2013-04-10 07:54:00,71.8,70.3,29.83,South,178,2.7,4.0,95,0.00,,SKC,0.00,VWS V13.01,2013-04-10 12:54:00,
2013-04-10 07:59:00,71.8,69.3,29.80,South,169,2.2,4.9,92,0.00,,SKC,0.00,VWS V13.01,2013-04-10 12:59:00,
2013-04-10 08:04:00,72.0,69.8,29.80,SSE,162,3.6,6.3,93,0.00,,SKC,0.00,VWS V13.01,2013-04-10 13:04:00,
2013-04-10 08:09:00,72.1,69.4,29.80,South,174,5.4,5.4,91,0.00,,SKC,0.00,VWS V13.01,2013-04-10 13:09:00,
2013-04-10 08:14:00,72.3,69.6,29.83,SSE,164,2.2,5.4,91,0.00,,SKC,0.00,VWS V13.01,2013-04-10 13:14:00,
2013-04-10 08:19:00,72.5,69.4,29.83,South,172,5.4,8.3,90,0.00,,SKC,0.00,VWS V13.01,2013-04-10 13:19:00,
2013-04-10 08:24:00,72.7,69.6,29.83,South,187,4.9,7.6,90,0.00,,SKC,0.00,VWS V13.01,2013-04-10 13:24:00,
2013-04-10 08:29:00,72.9,69.4,29.83,South,178,3.1,4.0,89,0.00,,SKC,0.00,VWS V13.01,2013-04-10 13:29:00,
2013-04-10 08:34:00,72.9,69.1,29.83,SSE,166,3.6,6.3,88,0.00,,SKC,0.00,VWS V13.01,2013-04-10 13:34:00,
2013-04-10 08:39:00,73.0,69.9,29.83,SE,131,6.3,6.3,90,0.00,,SKC,0.00,VWS V13.01,2013-04-10 13:39:00,
2013-04-10 08:44:00,73.0,69.3,29.83,SSE,153,3.1,7.6,88,0.00,,SKC,0.00,VWS V13.01,2013-04-10 13:44:00,
2013-04-10 08:49:00,73.0,69.3,29.83,SE,138,3.6,8.3,88,0.00,,SKC,0.00,VWS V13.01,2013-04-10 13:49:00,
2013-04-10 08:54:00,73.2,69.5,29.83,SE,129,8.1,8.1,88,0.00,,SKC,0.00,VWS V13.01,2013-04-10 13:54:00,
2013-04-10 08:59:00,73.4,69.6,29.83,South,180,6.7,6.7,88,0.00,,SKC,0.00,VWS V13.01,2013-04-10 13:59:00,
2013-04-10 09:04:00,73.8,70.0,29.83,SE,145,5.8,10.1,88,0.00,,SKC,0.00,VWS V13.01,2013-04-10 14:04:00,
2013-04-10 09:09:00,74.1,69.7,29.83,SSE,161,5.8,5.8,86,0.00,,SKC,0.00,VWS V13.01,2013-04-10 14:09:00,
2013-04-10 09:14:00,74.3,69.8,29.83,ESE,111,3.6,4.0,86,0.00,,SKC,0.00,VWS V13.01,2013-04-10 14:14:00,
2013-04-10 09:19:00,74.5,69.3,29.83,South,187,5.4,6.3,84,0.00,,SKC,0.00,VWS V13.01,2013-04-10 14:19:00,
2013-04-10 09:24:00,74.7,68.8,29.83,SSW,213,10.5,10.5,82,0.00,,SKC,0.00,VWS V13.01,2013-04-10 14:24:00,
2013-04-10 09:29:00,74.7,69.2,29.83,SSE,164,6.3,11.9,83,0.00,,SKC,0.00,VWS V13.01,2013-04-10 14:29:00,
2013-04-10 09:34:00,74.7,69.2,29.83,South,185,8.1,8.7,83,0.00,,SKC,0.00,VWS V13.01,2013-04-10 14:34:00,
2013-04-10 09:39:00,74.8,69.3,29.83,ESE,108,7.6,7.6,83,0.00,,SKC,0.00,VWS V13.01,2013-04-10 14:39:00,
2013-04-10 09:44:00,75.0,69.2,29.85,ESE,118,7.2,8.1,82,0.00,,SKC,0.00,VWS V13.01,2013-04-10 14:44:00,
2013-04-10 09:49:00,75.4,68.8,29.85,SE,129,8.1,8.1,80,0.00,,SKC,0.00,VWS V13.01,2013-04-10 14:49:00,
2013-04-10 09:54:00,75.7,68.8,29.85,SSE,156,8.3,8.3,79,0.00,,SKC,0.00,VWS V13.01,2013-04-10 14:54:00,
2013-04-10 09:59:00,76.6,69.3,29.85,SE,138,8.1,8.1,78,0.00,,SKC,0.00,VWS V13.01,2013-04-10 14:59:00,
2013-04-10 10:04:00,77.4,69.2,29.85,SSW,200,8.1,8.1,76,0.00,,SKC,0.00,VWS V13.01,2013-04-10 15:04:00,
2013-04-10 10:09:00,78.1,68.3,29.85,South,189,10.1,10.1,72,0.00,,SKC,0.00,VWS V13.01,2013-04-10 15:09:00,
2013-04-10 10:14:00,78.8,68.2,29.85,SSE,148,8.3,10.1,70,0.00,,SKC,0.00,VWS V13.01,2013-04-10 15:14:00,
2013-04-10 10:19:00,79.0,69.2,29.85,South,170,8.3,12.8,72,0.00,,SKC,0.00,VWS V13.01,2013-04-10 15:19:00,
2013-04-10 10:24:00,79.7,68.6,29.85,South,183,8.3,9.6,69,0.00,,SKC,0.00,VWS V13.01,2013-04-10 15:24:00,
2013-04-10 10:29:00,80.6,68.6,29.85,SE,145,10.5,13.2,67,0.00,,SKC,0.00,VWS V13.01,2013-04-10 15:29:00,
2013-04-10 10:33:00,80.8,69.7,29.85,South,186,10.1,13.6,69,0.00,,SKC,0.00,VWS V13.01,2013-04-10 15:33:00,
2013-04-10 10:38:00,81.3,68.9,29.85,SSE,159,11.0,11.0,66,0.00,,SKC,0.00,VWS V13.01,2013-04-10 15:38:00,
2013-04-10 10:43:00,82.0,69.1,29.85,SSE,148,8.3,9.2,65,0.00,,SKC,0.00,VWS V13.01,2013-04-10 15:43:00,
2013-04-10 10:48:00,81.9,69.4,29.85,SSE,156,10.5,12.8,66,0.00,,SKC,0.00,VWS V13.01,2013-04-10 15:48:00,
2013-04-10 10:53:00,82.4,69.5,29.85,South,180,5.8,7.6,65,0.00,,SKC,0.00,VWS V13.01,2013-04-10 15:53:00,
2013-04-10 10:58:00,82.9,69.5,29.85,SW,216,10.1,12.8,64,0.00,,SKC,0.00,VWS V13.01,2013-04-10 15:58:00,
2013-04-10 11:03:00,83.3,70.3,29.85,South,179,4.9,5.4,65,0.00,,SKC,0.00,VWS V13.01,2013-04-10 16:03:00,
2013-04-10 11:08:00,83.3,69.9,29.85,South,170,8.7,8.7,64,0.00,,SKC,0.00,VWS V13.01,2013-04-10 16:08:00,
2013-04-10 11:13:00,82.8,69.3,29.85,South,178,8.3,8.3,64,0.00,,SKC,0.00,VWS V13.01,2013-04-10 16:13:00,
2013-04-10 11:18:00,82.9,70.0,29.85,SE,124,5.8,5.8,65,0.00,,SKC,0.00,VWS V13.01,2013-04-10 16:18:00,
2013-04-10 11:23:00,83.3,69.9,29.85,SSE,161,10.1,10.1,64,0.00,,SKC,0.00,VWS V13.01,2013-04-10 16:23:00,
2013-04-10 11:28:00,83.7,70.2,29.85,SSW,194,7.6,7.6,64,0.00,,SKC,0.00,VWS V13.01,2013-04-10 16:28:00,
2013-04-10 11:33:00,82.8,69.3,29.85,SE,135,8.1,8.1,64,0.00,,SKC,0.00,VWS V13.01,2013-04-10 16:33:00,
2013-04-10 11:38:00,81.9,68.9,29.85,SE,126,6.3,7.6,65,0.00,,SKC,0.00,VWS V13.01,2013-04-10 16:38:00,
2013-04-10 11:44:00,81.7,68.8,29.85,SSE,150,5.4,10.1,65,0.00,,SKC,0.00,VWS V13.01,2013-04-10 16:44:00,
2013-04-10 11:49:00,81.9,68.9,29.85,SE,140,5.8,5.8,65,0.00,,SKC,0.00,VWS V13.01,2013-04-10 16:49:00,
2013-04-10 11:54:00,81.5,68.6,29.85,SSE,147,5.4,7.6,65,0.00,,SKC,0.00,VWS V13.01,2013-04-10 16:54:00,
2013-04-10 11:59:00,82.2,69.3,29.85,SE,140,5.4,5.4,65,0.00,,SKC,0.00,VWS V13.01,2013-04-10 16:59:00,
2013-04-10 12:04:00,82.9,69.5,29.85,SE,137,8.3,8.3,64,0.00,,SKC,0.00,VWS V13.01,2013-04-10 17:04:00,
2013-04-10 12:09:00,83.1,69.7,29.85,SE,132,8.3,8.3,64,0.00,,SKC,0.00,VWS V13.01,2013-04-10 17:09:00,
2013-04-10 12:13:00,83.5,70.0,29.85,South,184,8.1,8.7,64,0.00,,SKC,0.00,VWS V13.01,2013-04-10 17:13:00,
2013-04-10 12:18:00,83.5,70.0,29.85,South,181,8.3,8.3,64,0.00,,SKC,0.00,VWS V13.01,2013-04-10 17:18:00,
2013-04-10 12:23:00,83.7,70.2,29.85,ESE,115,4.9,5.4,64,0.00,,SKC,0.00,VWS V13.01,2013-04-10 17:23:00,
2013-04-10 12:28:00,83.3,69.9,29.85,South,187,8.3,8.3,64,0.00,,SKC,0.00,VWS V13.01,2013-04-10 17:28:00,
2013-04-10 12:33:00,82.9,69.5,29.85,South,170,5.8,5.8,64,0.00,,SKC,0.00,VWS V13.01,2013-04-10 17:33:00,
2013-04-10 12:38:00,82.4,69.0,29.85,SE,138,7.6,8.7,64,0.00,,SKC,0.00,VWS V13.01,2013-04-10 17:38:00,
2013-04-10 12:43:00,82.8,69.3,29.85,ESE,106,5.8,8.3,64,0.00,,SKC,0.00,VWS V13.01,2013-04-10 17:43:00,
2013-04-10 12:48:00,82.9,69.1,29.85,ESE,116,7.6,7.6,63,0.00,,SKC,0.00,VWS V13.01,2013-04-10 17:48:00,
2013-04-10 12:53:00,82.0,68.7,29.85,SSE,157,10.5,10.5,64,0.00,,SKC,0.00,VWS V13.01,2013-04-10 17:53:00,
2013-04-10 12:58:00,82.6,69.2,29.85,SE,142,5.8,8.1,64,0.00,,SKC,0.00,VWS V13.01,2013-04-10 17:58:00,
2013-04-10 13:03:00,82.4,69.0,29.85,SE,144,8.7,8.7,64,0.00,,SKC,0.00,VWS V13.01,2013-04-10 18:03:00,
2013-04-10 13:08:00,82.6,69.2,29.85,SSE,168,8.1,8.1,64,0.00,,SKC,0.00,VWS V13.01,2013-04-10 18:08:00,
2013-04-10 13:13:00,82.6,69.2,29.85,South,172,11.0,11.0,64,0.00,,SKC,0.00,VWS V13.01,2013-04-10 18:13:00,
2013-04-10 13:18:00,82.6,69.2,29.85,SE,140,6.3,7.6,64,0.00,,SKC,0.00,VWS V13.01,2013-04-10 18:18:00,
2013-04-10 13:23:00,82.6,69.2,29.85,SSE,148,11.0,11.0,64,0.00,,SKC,0.00,VWS V13.01,2013-04-10 18:23:00,
2013-04-10 13:28:00,82.8,69.3,29.85,ESE,122,5.8,5.8,64,0.00,,SKC,0.00,VWS V13.01,2013-04-10 18:28:00,
2013-04-10 13:33:00,83.1,69.2,29.85,SSE,161,4.9,8.3,63,0.00,,SKC,0.00,VWS V13.01,2013-04-10 18:33:00,
2013-04-10 13:38:00,82.8,68.9,29.85,ESE,120,8.3,8.3,63,0.00,,SKC,0.00,VWS V13.01,2013-04-10 18:38:00,
2013-04-10 13:43:00,82.9,69.5,29.83,SE,129,8.7,8.7,64,0.00,,SKC,0.00,VWS V13.01,2013-04-10 18:43:00,
2013-04-10 13:48:00,82.2,68.8,29.83,ESE,108,8.3,8.3,64,0.00,,SKC,0.00,VWS V13.01,2013-04-10 18:48:00,
2013-04-10 13:53:00,82.2,68.8,29.83,SE,124,5.4,7.6,64,0.00,,SKC,0.00,VWS V13.01,2013-04-10 18:53:00,
2013-04-10 13:58:00,81.9,68.5,29.83,South,177,5.4,5.8,64,0.00,,SKC,0.00,VWS V13.01,2013-04-10 18:58:00,
2013-04-10 14:03:00,82.4,68.6,29.83,South,176,8.3,8.3,63,0.00,,SKC,0.00,VWS V13.01,2013-04-10 19:03:00,
2013-04-10 14:08:00,82.9,69.1,29.83,ESE,117,5.8,11.0,63,0.00,,SKC,0.00,VWS V13.01,2013-04-10 19:08:00,
2013-04-10 14:13:00,83.3,69.4,29.83,ESE,117,6.3,6.3,63,0.00,,SKC,0.00,VWS V13.01,2013-04-10 19:13:00,
2013-04-10 14:18:00,83.8,69.9,29.83,East,99,8.3,8.3,63,0.00,,SKC,0.00,VWS V13.01,2013-04-10 19:18:00,
2013-04-10 14:23:00,83.5,69.6,29.83,South,175,5.4,5.4,63,0.00,,SKC,0.00,VWS V13.01,2013-04-10 19:23:00,
2013-04-10 14:28:00,83.8,69.9,29.83,ESE,120,5.8,8.1,63,0.00,,SKC,0.00,VWS V13.01,2013-04-10 19:28:00,
2013-04-10 14:33:00,84.4,70.4,29.83,SE,129,5.4,5.4,63,0.00,,SKC,0.00,VWS V13.01,2013-04-10 19:33:00,
2013-04-10 14:38:00,84.4,70.4,29.83,ESE,120,8.3,8.7,63,0.00,,SKC,0.00,VWS V13.01,2013-04-10 19:38:00,
2013-04-10 14:43:00,84.2,70.2,29.83,East,93,4.9,5.8,63,0.00,,SKC,0.00,VWS V13.01,2013-04-10 19:43:00,
2013-04-10 14:48:00,83.8,69.9,29.83,SE,144,8.7,8.7,63,0.00,,SKC,0.00,VWS V13.01,2013-04-10 19:48:00,
2013-04-10 14:53:00,83.8,69.9,29.83,East,97,8.7,8.7,63,0.00,,SKC,0.00,VWS V13.01,2013-04-10 19:53:00,
2013-04-10 14:58:00,83.1,69.2,29.83,SE,131,11.4,11.4,63,0.00,,SKC,0.00,VWS V13.01,2013-04-10 19:58:00,
2013-04-10 15:03:00,82.9,69.1,29.83,SSE,155,8.1,8.1,63,0.00,,SKC,0.00,VWS V13.01,2013-04-10 20:03:00,
2013-04-10 15:08:00,82.8,68.9,29.83,SSE,162,8.7,8.7,63,0.00,,SKC,0.00,VWS V13.01,2013-04-10 20:08:00,
2013-04-10 15:13:00,82.9,69.1,29.80,SE,134,10.1,10.1,63,0.00,,SKC,0.00,VWS V13.01,2013-04-10 20:13:00,
2013-04-10 15:18:00,82.8,68.9,29.80,SE,141,8.3,8.3,63,0.00,,SKC,0.00,VWS V13.01,2013-04-10 20:18:00,
2013-04-10 15:23:00,82.8,68.9,29.80,SSE,161,8.3,11.0,63,0.00,,SKC,0.00,VWS V13.01,2013-04-10 20:23:00,
2013-04-10 15:28:00,82.2,68.8,29.80,SE,133,8.7,8.7,64,0.00,,SKC,0.00,VWS V13.01,2013-04-10 20:28:00,
2013-04-10 15:33:00,82.2,68.8,29.80,SSE,167,12.8,12.8,64,0.00,,SKC,0.00,VWS V13.01,2013-04-10 20:33:00,
2013-04-10 15:38:00,82.4,69.0,29.80,ESE,116,6.3,6.3,64,0.00,,SKC,0.00,VWS V13.01,2013-04-10 20:38:00,
2013-04-10 15:43:00,82.9,69.1,29.80,South,170,8.1,8.1,63,0.00,,SKC,0.00,VWS V13.01,2013-04-10 20:43:00,
2013-04-10 15:48:00,83.5,70.0,29.80,ESE,119,6.3,8.7,64,0.00,,SKC,0.00,VWS V13.01,2013-04-10 20:48:00,
2013-04-10 15:53:00,83.5,69.6,29.80,South,188,8.3,8.3,63,0.00,,SKC,0.00,VWS V13.01,2013-04-10 20:53:00,
2013-04-10 15:58:00,82.8,68.9,29.80,ESE,118,10.1,10.1,63,0.00,,SKC,0.00,VWS V13.01,2013-04-10 20:58:00,
2013-04-10 16:03:00,82.2,68.8,29.80,ESE,121,6.7,6.7,64,0.00,,SKC,0.00,VWS V13.01,2013-04-10 21:03:00,
2013-04-10 16:08:00,82.2,68.8,29.80,South,189,3.6,5.8,64,0.00,,SKC,0.00,VWS V13.01,2013-04-10 21:08:00,
2013-04-10 16:13:00,82.2,68.8,29.80,South,182,7.6,7.6,64,0.00,,SKC,0.00,VWS V13.01,2013-04-10 21:13:00,
2013-04-10 16:18:00,81.9,68.5,29.80,SE,132,8.1,10.5,64,0.00,,SKC,0.00,VWS V13.01,2013-04-10 21:18:00,
2013-04-10 16:23:00,81.3,68.0,29.80,SE,139,6.3,7.6,64,0.00,,SKC,0.00,VWS V13.01,2013-04-10 21:23:00,
2013-04-10 16:28:00,81.1,67.8,29.77,SE,129,11.0,11.0,64,0.00,,SKC,0.00,VWS V13.01,2013-04-10 21:28:00,
2013-04-10 16:33:00,80.8,67.5,29.77,ESE,107,6.3,6.3,64,0.00,,SKC,0.00,VWS V13.01,2013-04-10 21:33:00,
2013-04-10 16:38:00,80.4,67.6,29.77,ESE,119,6.3,7.2,65,0.00,,SKC,0.00,VWS V13.01,2013-04-10 21:38:00,
2013-04-10 16:43:00,80.2,67.4,29.77,SE,138,5.8,5.8,65,0.00,,SKC,0.00,VWS V13.01,2013-04-10 21:43:00,
2013-04-10 16:48:00,80.1,67.7,29.77,South,175,8.1,8.1,66,0.00,,SKC,0.00,VWS V13.01,2013-04-10 21:48:00,
2013-04-10 16:53:00,79.9,67.1,29.77,South,177,4.9,5.4,65,0.00,,SKC,0.00,VWS V13.01,2013-04-10 21:53:00,
2013-04-10 16:58:00,79.7,67.3,29.77,SSE,151,8.3,8.3,66,0.00,,SKC,0.00,VWS V13.01,2013-04-10 21:58:00,
2013-04-10 17:03:00,80.1,67.2,29.77,ESE,102,6.7,6.7,65,0.00,,SKC,0.00,VWS V13.01,2013-04-10 22:03:00,
2013-04-10 17:08:00,80.1,67.7,29.77,SSE,158,5.4,5.4,66,0.00,,SKC,0.00,VWS V13.01,2013-04-10 22:08:00,
2013-04-10 17:13:00,79.7,67.3,29.77,SE,125,4.0,8.1,66,0.00,,SKC,0.00,VWS V13.01,2013-04-10 22:13:00,
2013-04-10 17:18:00,79.0,67.1,29.77,ESE,110,10.1,10.1,67,0.00,,SKC,0.00,VWS V13.01,2013-04-10 22:18:00,
2013-04-10 17:23:00,78.6,67.6,29.77,East,90,5.4,10.5,69,0.00,,SKC,0.00,VWS V13.01,2013-04-10 22:23:00,
2013-04-10 17:28:00,78.3,68.1,29.77,SE,125,6.3,6.3,71,0.00,,SKC,0.00,VWS V13.01,2013-04-10 22:28:00,
2013-04-10 17:33:00,78.1,68.7,29.77,East,95,5.8,5.8,73,0.00,,SKC,0.00,VWS V13.01,2013-04-10 22:33:00,
2013-04-10 17:38:00,77.9,68.9,29.77,SE,143,3.6,3.6,74,0.00,,SKC,0.00,VWS V13.01,2013-04-10 22:38:00,
2013-04-10 17:43:00,77.7,68.8,29.77,ESE,123,8.1,8.1,74,0.00,,SKC,0.00,VWS V13.01,2013-04-10 22:43:00,
2013-04-10 17:48:00,77.5,68.6,29.77,ESE,113,7.6,7.6,74,0.00,,SKC,0.00,VWS V13.01,2013-04-10 22:48:00,
2013-04-10 17:53:00,77.5,69.0,29.77,SE,136,5.4,6.3,75,0.00,,SKC,0.00,VWS V13.01,2013-04-10 22:53:00,
2013-04-10 17:58:00,77.4,68.8,29.77,SSE,155,3.1,4.0,75,0.00,,SKC,0.00,VWS V13.01,2013-04-10 22:58:00,
2013-04-10 18:03:00,77.2,68.7,29.77,SE,131,10.5,10.5,75,0.00,,SKC,0.00,VWS V13.01,2013-04-10 23:03:00,
2013-04-10 18:08:00,76.8,68.7,29.77,SE,143,5.4,8.3,76,0.00,,SKC,0.00,VWS V13.01,2013-04-10 23:08:00,
2013-04-10 18:13:00,76.6,68.9,29.77,ESE,123,7.6,7.6,77,0.00,,SKC,0.00,VWS V13.01,2013-04-10 23:13:00,
2013-04-10 18:18:00,76.3,68.9,29.77,East,99,2.7,2.7,78,0.00,,SKC,0.00,VWS V13.01,2013-04-10 23:18:00,
2013-04-10 18:23:00,76.1,68.8,29.77,South,170,5.8,5.8,78,0.00,,SKC,0.00,VWS V13.01,2013-04-10 23:23:00,
2013-04-10 18:28:00,76.1,68.8,29.77,SSE,149,4.0,5.8,78,0.00,,SKC,0.00,VWS V13.01,2013-04-10 23:28:00,
2013-04-10 18:33:00,75.9,68.9,29.77,South,187,5.8,8.1,79,0.00,,SKC,0.00,VWS V13.01,2013-04-10 23:33:00,
2013-04-10 18:38:00,75.7,68.8,29.77,SE,141,5.8,5.8,79,0.00,,SKC,0.00,VWS V13.01,2013-04-10 23:38:00,
2013-04-10 18:43:00,75.6,69.3,29.77,SSE,151,3.6,3.6,81,0.00,,SKC,0.00,VWS V13.01,2013-04-10 23:43:00,
2013-04-10 18:48:00,75.2,69.0,29.77,SSE,150,6.3,6.3,81,0.00,,SKC,0.00,VWS V13.01,2013-04-10 23:48:00,
2013-04-10 18:53:00,75.2,69.3,29.77,SSE,164,2.2,6.3,82,0.00,,SKC,0.00,VWS V13.01,2013-04-10 23:53:00,
2013-04-10 18:58:00,75.0,69.5,29.77,SE,130,5.8,6.7,83,0.00,,SKC,0.00,VWS V13.01,2013-04-10 23:58:00,
2013-04-10 19:03:00,75.0,69.9,29.77,SSW,205,3.6,3.6,84,0.00,,SKC,0.00,VWS V13.01,2013-04-11 00:03:00,
2013-04-10 19:08:00,75.0,69.9,29.77,SSW,196,5.4,5.4,84,0.00,,SKC,0.00,VWS V13.01,2013-04-11 00:08:00,
2013-04-10 19:13:00,74.8,69.7,29.77,South,187,5.8,8.3,84,0.00,,SKC,0.00,VWS V13.01,2013-04-11 00:13:00,
2013-04-10 19:18:00,74.7,69.9,29.77,SE,130,7.6,8.3,85,0.00,,SKC,0.00,VWS V13.01,2013-04-11 00:18:00,
2013-04-10 19:23:00,74.5,69.7,29.77,SSE,152,6.3,10.1,85,0.00,,SKC,0.00,VWS V13.01,2013-04-11 00:23:00,
2013-04-10 19:28:00,74.3,69.8,29.77,South,187,4.0,8.7,86,0.00,,SKC,0.00,VWS V13.01,2013-04-11 00:28:00,
2013-04-10 19:33:00,74.3,70.2,29.77,South,186,2.7,4.9,87,0.00,,SKC,0.00,VWS V13.01,2013-04-11 00:33:00,
2013-04-10 19:38:00,74.3,70.2,29.77,ESE,117,3.6,3.6,87,0.00,,SKC,0.00,VWS V13.01,2013-04-11 00:38:00,
2013-04-10 19:43:00,74.3,70.2,29.77,SSE,158,3.1,9.6,87,0.00,,SKC,0.00,VWS V13.01,2013-04-11 00:43:00,
2013-04-10 19:48:00,74.3,69.8,29.77,ESE,117,4.0,5.8,86,0.00,,SKC,0.00,VWS V13.01,2013-04-11 00:48:00,
2013-04-10 19:53:00,74.3,70.2,29.77,SSW,198,6.3,6.3,87,0.00,,SKC,0.00,VWS V13.01,2013-04-11 00:53:00,
2013-04-10 19:58:00,74.3,70.2,29.77,South,180,2.7,4.9,87,0.00,,SKC,0.00,VWS V13.01,2013-04-11 00:58:00,
2013-04-10 20:03:00,74.1,70.0,29.77,SE,135,6.3,6.3,87,0.00,,SKC,0.00,VWS V13.01,2013-04-11 01:03:00,
2013-04-10 20:08:00,73.9,70.2,29.77,SE,137,3.6,4.0,88,0.00,,SKC,0.00,VWS V13.01,2013-04-11 01:08:00,
2013-04-10 20:13:00,73.9,70.2,29.77,ESE,108,3.6,6.3,88,0.00,,SKC,0.00,VWS V13.01,2013-04-11 01:13:00,
2013-04-10 20:18:00,73.9,70.2,29.77,South,181,5.4,6.3,88,0.00,,SKC,0.00,VWS V13.01,2013-04-11 01:18:00,
2013-04-10 20:23:00,73.9,70.2,29.77,SE,141,8.7,8.7,88,0.00,,SKC,0.00,VWS V13.01,2013-04-11 01:23:00,
2013-04-10 20:28:00,73.9,70.2,29.74,SSE,160,3.6,5.8,88,0.00,,SKC,0.00,VWS V13.01,2013-04-11 01:28:00,
2013-04-10 20:33:00,73.9,70.2,29.74,ESE,111,3.6,8.1,88,0.00,,SKC,0.00,VWS V13.01,2013-04-11 01:33:00,
2013-04-10 20:38:00,73.9,70.2,29.74,ESE,119,7.2,8.1,88,0.00,,SKC,0.00,VWS V13.01,2013-04-11 01:38:00,
2013-04-10 20:43:00,73.8,70.0,29.77,SE,138,8.1,8.7,88,0.00,,SKC,0.00,VWS V13.01,2013-04-11 01:43:00,
2013-04-10 20:48:00,73.9,70.5,29.77,SSE,147,5.8,5.8,89,0.00,,SKC,0.00,VWS V13.01,2013-04-11 01:48:00,
2013-04-10 20:53:00,73.9,70.2,29.77,SSE,163,5.4,6.3,88,0.00,,SKC,0.00,VWS V13.01,2013-04-11 01:53:00,
2013-04-10 20:58:00,73.8,70.3,29.77,SE,130,4.0,5.4,89,0.00,,SKC,0.00,VWS V13.01,2013-04-11 01:58:00,
2013-04-10 21:03:00,73.8,70.3,29.77,ESE,119,2.7,4.0,89,0.00,,SKC,0.00,VWS V13.01,2013-04-11 02:03:00,
2013-04-10 21:08:00,73.8,70.7,29.77,SE,128,3.1,5.4,90,0.00,,SKC,0.00,VWS V13.01,2013-04-11 02:08:00,
2013-04-10 21:13:00,73.6,70.5,29.77,SE,141,3.6,6.7,90,0.00,,SKC,0.00,VWS V13.01,2013-04-11 02:13:00,
2013-04-10 21:18:00,73.6,70.8,29.77,SSE,156,7.2,7.2,91,0.00,,SKC,0.00,VWS V13.01,2013-04-11 02:18:00,
2013-04-10 21:23:00,73.4,70.6,29.77,ESE,120,4.0,5.8,91,0.00,,SKC,0.00,VWS V13.01,2013-04-11 02:23:00,
2013-04-10 21:28:00,73.4,70.6,29.77,SE,144,4.9,5.8,91,0.00,,SKC,0.00,VWS V13.01,2013-04-11 02:28:00,
2013-04-10 21:33:00,73.4,70.6,29.77,SSE,168,0.0,4.0,91,0.00,,SKC,0.00,VWS V13.01,2013-04-11 02:33:00,
2013-04-10 21:38:00,73.4,70.6,29.77,South,172,3.1,5.4,91,0.00,,SKC,0.00,VWS V13.01,2013-04-11 02:38:00,
2013-04-10 21:43:00,73.4,70.6,29.77,South,190,5.4,6.3,91,0.00,,SKC,0.00,VWS V13.01,2013-04-11 02:43:00,
2013-04-10 21:48:00,73.4,70.6,29.77,South,177,5.4,7.6,91,0.00,,SKC,0.00,VWS V13.01,2013-04-11 02:48:00,
2013-04-10 21:53:00,73.4,70.6,29.77,SE,135,4.0,5.8,91,0.00,,SKC,0.00,VWS V13.01,2013-04-11 02:53:00,
2013-04-10 21:58:00,73.4,70.6,29.74,SE,146,7.6,8.1,91,0.00,,SKC,0.00,VWS V13.01,2013-04-11 02:58:00,
2013-04-10 22:03:00,73.4,70.6,29.74,SE,138,3.6,4.0,91,0.00,,SKC,0.00,VWS V13.01,2013-04-11 03:03:00,
2013-04-10 22:08:00,73.4,70.6,29.74,SE,143,8.1,8.1,91,0.00,,SKC,0.00,VWS V13.01,2013-04-11 03:08:00,
2013-04-10 22:13:00,73.4,70.9,29.77,SSE,153,5.8,5.8,92,0.00,,SKC,0.00,VWS V13.01,2013-04-11 03:13:00,
2013-04-10 22:18:00,73.4,70.9,29.77,SSE,147,5.4,5.4,92,0.00,,SKC,0.00,VWS V13.01,2013-04-11 03:18:00,
2013-04-10 22:23:00,73.4,70.9,29.77,SE,141,3.1,5.8,92,0.00,,SKC,0.00,VWS V13.01,2013-04-11 03:23:00,
2013-04-10 22:28:00,73.4,70.9,29.74,South,180,5.4,5.4,92,0.00,,SKC,0.00,VWS V13.01,2013-04-11 03:28:00,
2013-04-10 22:33:00,73.4,70.9,29.74,ESE,120,3.6,5.4,92,0.00,,SKC,0.00,VWS V13.01,2013-04-11 03:33:00,
2013-04-10 22:38:00,73.4,70.9,29.74,SE,130,3.1,4.9,92,0.00,,SKC,0.00,VWS V13.01,2013-04-11 03:38:00,
2013-04-10 22:43:00,73.4,70.9,29.74,SE,141,4.9,4.9,92,0.00,,SKC,0.00,VWS V13.01,2013-04-11 03:43:00,
2013-04-10 22:48:00,73.4,70.9,29.74,SE,146,3.6,6.3,92,0.00,,SKC,0.00,VWS V13.01,2013-04-11 03:48:00,
2013-04-10 22:53:00,73.4,70.9,29.74,SE,145,6.3,6.3,92,0.00,,SKC,0.00,VWS V13.01,2013-04-11 03:53:00,
2013-04-10 22:58:00,73.4,70.9,29.74,SSE,161,4.0,7.6,92,0.00,,SKC,0.00,VWS V13.01,2013-04-11 03:58:00,
2013-04-10 23:00:00,73.4,70.9,29.74,SE,131,2.7,2.7,92,0.00,,SKC,0.00,VWS V13.01,2013-04-11 04:00:00,
2013-04-10 23:05:00,73.4,70.9,29.74,SSW,194,6.3,6.3,92,0.00,,SKC,0.00,VWS V13.01,2013-04-11 04:05:00,
2013-04-10 23:10:00,73.4,70.9,29.74,SE,145,6.3,6.3,92,0.00,,SKC,0.00,VWS V13.01,2013-04-11 04:10:00,
2013-04-10 23:15:00,73.4,70.9,29.74,SSE,166,5.8,5.8,92,0.00,,SKC,0.00,VWS V13.01,2013-04-11 04:15:00,
2013-04-10 23:20:00,73.4,70.9,29.74,SE,144,5.8,8.3,92,0.00,,SKC,0.00,VWS V13.01,2013-04-11 04:20:00,
2013-04-10 23:25:00,73.4,70.9,29.74,SSE,166,5.8,7.2,92,0.00,,SKC,0.00,VWS V13.01,2013-04-11 04:25:00,
2013-04-10 23:30:00,73.4,70.9,29.74,SSE,163,7.6,7.6,92,0.00,,SKC,0.00,VWS V13.01,2013-04-11 04:30:00,
2013-04-10 23:35:00,73.4,70.9,29.74,South,176,7.6,7.6,92,0.00,,SKC,0.00,VWS V13.01,2013-04-11 04:35:00,
2013-04-10 23:40:00,73.4,70.9,29.74,SE,142,3.1,7.6,92,0.00,,SKC,0.00,VWS V13.01,2013-04-11 04:40:00,
2013-04-10 23:45:00,73.4,71.3,29.74,SE,142,4.0,5.8,93,0.00,,SKC,0.00,VWS V13.01,2013-04-11 04:45:00,
2013-04-10 23:50:00,73.4,71.3,29.74,South,173,5.4,5.4,93,0.00,,SKC,0.00,VWS V13.01,2013-04-11 04:50:00,
2013-04-10 23:55:00,73.4,70.9,29.74,SW,216,2.7,6.3,92,0.00,,SKC,0.00,VWS V13.01,2013-04-11 04:55:00,